Date,Time,Wetness (Wet Dry or Ice),Wind Speed (m/s),Temperature (C),Humidity (%),Pressure (mb),Radiation (W/m^2)
2019-10-28,05:10:00,WET,9.73,12.23,65.3,776.00,1.2
2019-10-28,05:15:00,WET,7.80,12.05,67.5,776.00,1.1
2019-10-28,05:20:00,WET,8.63,11.93,66.3,776.00,1.2
2019-10-28,05:25:00,WET,9.90,12.05,65.5,776.00,1.5
2019-10-28,05:30:00,WET,10.27,12.10,64.0,775.67,1.0
2019-10-28,05:35:00,WET,9.40,11.90,65.5,776.00,1.0
2019-10-28,05:40:00,WET,9.87,11.97,67.3,775.67,1.3
2019-10-28,05:45:00,WET,8.35,11.90,68.0,775.50,1.1
2019-10-28,05:50:00,WET,8.83,11.83,68.3,776.00,1.5
2019-10-28,05:55:00,WET,11.90,11.95,68.0,776.00,1.4
2019-10-28,06:00:00,WET,8.60,11.93,70.0,776.00,1.2
2019-10-28,06:05:00,WET,7.85,12.10,66.5,776.00,1.4
2019-10-28,06:10:00,WET,8.47,12.10,66.3,775.67,1.6
2019-10-28,06:15:00,WET,6.00,12.10,67.0,776.00,1.1
2019-10-28,06:20:00,WET,8.30,11.90,67.3,776.00,1.1
2019-10-28,06:25:00,WET,10.95,12.00,68.0,776.00,1.2
2019-10-28,06:30:00,WET,10.03,11.97,67.0,776.00,1.1
2019-10-28,06:35:00,WET,9.50,12.10,68.0,776.00,1.9
2019-10-28,06:40:00,WET,8.00,12.03,68.7,776.00,1.3
2019-10-28,06:45:00,WET,8.35,12.15,69.0,776.00,1.2
2019-10-28,06:50:00,WET,9.33,12.17,69.3,776.00,1.3
2019-10-28,06:55:00,WET,9.45,12.10,69.5,776.00,1.6
2019-10-28,07:00:00,WET,8.13,11.97,70.3,776.00,1.8
2019-10-28,07:05:00,WET,9.15,12.05,69.5,776.00,1.4
2019-10-28,07:10:00,WET,10.50,12.13,69.7,776.00,2.1
2019-10-28,07:15:00,WET,8.55,12.10,70.5,776.00,4.6
2019-10-28,07:20:00,WET,8.23,12.17,71.0,776.00,6.2
2019-10-28,07:25:00,WET,7.55,12.05,72.0,776.00,8.8
2019-10-28,07:30:00,WET,7.20,12.07,72.3,776.00,14.2
2019-10-28,07:35:00,WET,11.25,12.20,72.0,776.00,19.9
2019-10-28,07:40:00,WET,10.20,12.23,71.7,776.00,24.4
2019-10-28,07:45:00,WET,7.05,12.25,72.0,776.00,28.8
2019-10-28,07:50:00,WET,7.47,12.20,72.3,776.00,32.6
2019-10-28,07:55:00,WET,8.70,12.20,72.5,776.00,36.2
2019-10-28,08:00:00,WET,10.10,12.27,72.3,776.00,104.1
2019-10-28,08:05:00,WET,6.80,12.25,72.5,776.00,141.1
2019-10-28,08:10:00,WET,8.73,12.37,72.3,776.00,159.8
2019-10-28,08:15:00,WET,7.20,12.40,71.5,776.00,181.5
2019-10-28,08:20:00,WET,9.13,12.50,71.7,776.33,200.4
2019-10-28,08:25:00,WET,11.15,12.50,72.0,776.50,221.3
2019-10-28,08:30:00,WET,9.80,12.43,71.7,776.00,241.0
2019-10-28,08:35:00,WET,6.20,12.40,71.5,777.00,261.7
2019-10-28,08:40:00,WET,8.20,12.43,71.0,777.00,281.6
2019-10-28,08:45:00,WET,5.60,12.40,71.0,777.00,300.8
2019-10-28,08:50:00,WET,6.97,12.20,72.0,777.00,320.7
2019-10-28,08:55:00,DRY,4.70,12.10,73.5,777.00,341.2
2019-10-28,09:00:00,WET,9.53,12.33,72.7,777.00,361.1
2019-10-28,09:05:00,WET,6.25,12.50,72.0,777.00,382.1
2019-10-28,09:10:00,DRY,7.43,12.43,72.7,777.00,400.4
2019-10-28,09:15:00,DRY,7.55,12.55,72.0,777.00,419.2
2019-10-28,09:20:00,DRY,7.20,12.70,71.3,777.00,436.9
2019-10-28,09:25:00,DRY,8.75,12.70,72.5,777.00,457.0
2019-10-28,09:30:00,DRY,6.10,12.80,71.7,777.00,474.1
2019-10-28,09:35:00,DRY,7.65,12.90,71.5,777.00,491.2
2019-10-28,09:40:00,DRY,6.10,12.90,71.3,777.00,509.1
2019-10-28,09:45:00,DRY,6.20,12.90,71.5,777.00,525.6
2019-10-28,09:50:00,DRY,7.33,13.00,71.3,777.00,542.3
2019-10-28,09:55:00,DRY,5.75,13.00,71.0,777.00,559.3
2019-10-28,10:00:00,DRY,6.73,13.07,71.0,777.00,574.1
2019-10-28,10:05:00,DRY,7.20,13.15,70.0,777.00,590.8
2019-10-28,10:10:00,DRY,8.77,13.13,70.0,777.00,604.3
2019-10-28,10:15:00,DRY,7.70,13.15,69.5,777.00,618.9
2019-10-28,10:20:00,DRY,6.70,13.20,69.7,777.00,633.3
2019-10-28,10:25:00,DRY,6.65,13.25,69.0,777.00,646.6
2019-10-28,10:30:00,DRY,6.93,13.30,69.7,777.00,659.8
2019-10-28,10:35:00,DRY,7.70,13.35,69.5,777.00,672.8
2019-10-28,10:40:00,DRY,6.13,13.37,69.7,777.00,686.1
2019-10-28,10:45:00,DRY,6.50,13.60,69.5,777.50,697.6
2019-10-28,10:50:00,DRY,5.27,13.73,69.3,777.00,708.4
2019-10-28,10:55:00,DRY,7.45,13.75,68.0,777.50,719.9
2019-10-28,11:00:00,DRY,5.73,13.70,69.3,777.00,728.5
2019-10-28,11:05:00,DRY,4.15,13.75,67.5,777.50,738.6
2019-10-28,11:10:00,DRY,8.00,13.73,67.3,777.33,749.8
2019-10-28,11:15:00,DRY,6.90,13.75,67.5,778.00,760.0
2019-10-28,11:20:00,DRY,6.00,13.80,67.7,777.33,768.7
2019-10-28,11:25:00,DRY,5.85,13.85,66.5,778.00,774.5
2019-10-28,11:30:00,DRY,7.10,13.97,67.3,777.00,786.2
2019-10-28,11:35:00,DRY,7.85,14.05,67.0,777.00,788.6
2019-10-28,11:40:00,DRY,4.70,14.10,66.7,777.00,797.4
2019-10-28,11:45:00,DRY,6.90,14.15,65.0,777.50,805.5
2019-10-28,11:50:00,DRY,6.03,14.03,66.3,777.33,810.2
2019-10-28,11:55:00,DRY,6.80,14.15,67.5,778.00,816.5
2019-10-28,12:00:00,DRY,7.53,14.10,67.0,777.00,822.5
2019-10-28,12:05:00,DRY,5.10,14.00,69.0,777.00,827.6
2019-10-28,12:10:00,DRY,7.87,14.03,68.7,777.33,833.0
2019-10-28,12:15:00,DRY,6.80,14.25,67.5,777.50,835.3
2019-10-28,12:20:00,DRY,5.13,14.30,68.0,777.00,838.5
2019-10-28,12:25:00,DRY,6.85,14.25,68.5,777.00,843.5
2019-10-28,12:30:00,DRY,7.53,14.37,67.3,777.00,846.0
2019-10-28,12:35:00,DRY,5.15,14.60,67.5,777.00,848.3
2019-10-28,12:40:00,DRY,4.37,14.67,66.7,777.00,849.1
2019-10-28,12:45:00,DRY,5.45,14.55,67.0,777.00,851.6
2019-10-28,12:50:00,DRY,3.80,14.57,66.3,777.00,853.3
2019-10-28,12:55:00,DRY,9.60,14.75,67.5,777.00,851.0
2019-10-28,13:00:00,DRY,5.27,14.50,67.3,777.00,849.4
2019-10-28,13:05:00,DRY,6.50,14.50,67.5,777.00,851.3
2019-10-28,13:10:00,DRY,6.87,14.53,67.3,777.00,847.3
2019-10-28,13:15:00,DRY,2.55,14.65,67.5,777.00,848.0
2019-10-28,13:20:00,DRY,4.50,14.77,67.7,777.00,847.4
2019-10-28,13:25:00,DRY,7.20,14.45,68.5,777.00,856.8
2019-10-28,13:30:00,DRY,6.30,14.40,69.0,777.00,844.3
2019-10-28,13:35:00,DRY,6.30,14.60,67.0,777.00,832.3
2019-10-28,13:40:00,DRY,5.53,14.80,64.7,777.00,828.7
2019-10-28,13:45:00,DRY,5.40,14.65,62.5,777.00,824.2
2019-10-28,13:50:00,DRY,5.53,14.90,59.0,777.00,820.4
2019-10-28,13:55:00,DRY,5.80,14.90,59.0,777.00,812.9
2019-10-28,14:00:00,DRY,5.93,14.87,58.7,777.00,807.8
2019-10-28,14:05:00,DRY,4.95,14.50,61.0,777.00,799.2
2019-10-28,14:10:00,DRY,5.40,14.57,61.7,777.00,792.3
2019-10-28,14:15:00,DRY,6.40,14.55,61.5,777.00,786.1
2019-10-28,14:20:00,DRY,6.20,14.77,61.0,777.00,786.8
2019-10-28,14:25:00,DRY,5.95,14.65,62.0,777.00,740.4
2019-10-28,14:30:00,DRY,6.13,14.60,62.0,777.00,741.0
2019-10-28,14:35:00,DRY,6.40,14.65,61.5,777.00,759.6
2019-10-28,14:40:00,DRY,5.47,14.57,63.0,777.00,736.8
2019-10-28,14:45:00,DRY,5.95,14.55,63.5,776.50,730.2
2019-10-28,14:50:00,DRY,5.80,14.37,66.0,776.67,716.9
2019-10-28,14:55:00,DRY,7.25,14.55,66.0,776.50,702.9
2019-10-28,15:00:00,DRY,6.80,14.33,67.7,777.00,694.4
2019-10-28,15:05:00,DRY,6.25,14.45,68.0,777.00,681.4
2019-10-28,15:10:00,DRY,5.93,14.60,65.0,776.67,672.3
2019-10-28,15:15:00,DRY,5.90,14.25,67.5,776.00,656.6
2019-10-28,15:20:00,DRY,7.73,14.23,67.0,776.00,646.7
2019-10-28,15:25:00,DRY,3.35,14.50,67.5,776.50,634.5
2019-10-28,15:30:00,DRY,6.60,14.20,67.3,776.00,623.3
2019-10-28,15:35:00,DRY,3.35,14.25,65.0,776.50,610.5
2019-10-28,15:40:00,DRY,4.47,14.17,65.0,776.33,599.1
2019-10-28,15:45:00,DRY,3.75,14.15,65.0,776.00,585.0
2019-10-28,15:50:00,DRY,5.40,14.17,66.0,776.00,563.9
2019-10-28,15:55:00,DRY,7.60,14.10,66.0,776.00,511.0
2019-10-28,16:00:00,DRY,6.87,14.10,64.7,776.33,474.5
2019-10-28,16:05:00,DRY,6.55,14.00,64.5,776.50,324.0
2019-10-28,16:10:00,DRY,6.43,13.70,67.3,776.00,464.5
2019-10-28,16:15:00,DRY,6.20,13.80,66.5,776.00,429.2
2019-10-28,16:20:00,DRY,5.43,13.93,66.7,776.00,432.0
2019-10-28,16:25:00,DRY,8.65,13.80,65.5,776.00,424.6
2019-10-28,16:30:00,DRY,6.20,13.60,66.3,776.00,314.8
2019-10-28,16:35:00,DRY,9.00,13.55,68.0,776.00,349.4
2019-10-28,16:40:00,DRY,5.67,13.37,71.0,776.00,233.1
2019-10-28,16:45:00,DRY,7.55,13.30,70.5,776.00,264.7
2019-10-28,16:50:00,DRY,6.17,13.23,72.3,776.00,228.8
2019-10-28,16:55:00,WET,7.45,13.05,74.0,776.00,149.6
2019-10-28,17:00:00,WET,6.77,12.87,74.7,776.00,176.1
2019-10-28,17:05:00,WET,5.30,13.10,73.5,776.00,353.5
2019-10-28,17:10:00,WET,4.97,13.20,74.3,776.00,188.7
2019-10-28,17:15:00,WET,8.15,12.90,77.5,776.00,124.4
2019-10-28,17:20:00,WET,7.03,12.73,78.0,776.00,158.6
2019-10-28,17:25:00,WET,6.55,12.80,78.5,776.00,245.5
2019-10-28,17:30:00,WET,5.53,12.80,78.0,776.00,173.3
2019-10-28,17:35:00,WET,6.85,12.75,77.5,776.00,153.3
2019-10-28,17:40:00,WET,6.67,12.67,76.3,776.00,161.4
2019-10-28,17:45:00,WET,5.65,12.60,76.0,776.00,137.7
2019-10-28,17:50:00,WET,4.67,12.63,75.3,776.00,113.2
2019-10-28,17:55:00,WET,5.80,12.55,76.0,776.00,110.5
2019-10-28,18:00:00,WET,6.57,12.57,76.3,776.00,108.5
2019-10-28,18:05:00,WET,8.20,12.50,76.0,776.00,82.2
2019-10-28,18:10:00,WET,3.67,12.30,75.7,776.00,38.1
2019-10-28,18:15:00,WET,4.70,12.20,77.5,776.00,26.1
2019-10-28,18:20:00,WET,7.20,12.07,77.0,776.00,18.0
2019-10-28,18:25:00,WET,7.00,12.00,77.0,776.00,12.0
2019-10-28,18:30:00,WET,3.90,11.93,75.0,776.00,7.2
2019-10-28,18:35:00,WET,6.05,11.95,72.0,776.00,5.2
2019-10-28,18:40:00,WET,4.43,11.87,74.0,776.00,2.1
2019-10-28,18:45:00,WET,5.95,11.85,75.0,776.00,2.7
2019-10-28,18:50:00,WET,4.90,11.87,76.7,776.00,1.8
2019-10-28,18:55:00,WET,5.35,11.75,78.0,776.00,1.5
2019-10-28,19:00:00,WET,5.23,11.80,79.0,776.00,0.9
2019-10-28,19:05:00,WET,7.00,11.85,79.0,776.00,1.3
2019-10-28,19:10:00,WET,5.70,11.83,79.0,776.00,1.3
2019-10-28,19:15:00,WET,8.30,11.85,76.5,776.00,1.6
2019-10-28,19:20:00,WET,6.87,11.87,75.3,776.00,1.7
2019-10-28,19:25:00,DRY,8.25,12.00,68.5,776.00,1.2
2019-10-28,19:30:00,DRY,7.63,12.03,69.3,776.00,1.3
2019-10-28,19:35:00,DRY,5.40,12.05,66.0,776.00,1.2
2019-10-28,19:40:00,DRY,4.97,12.20,64.3,776.33,1.3
2019-10-28,19:45:00,DRY,7.10,12.10,66.0,776.50,1.4
2019-10-28,19:50:00,DRY,7.13,12.13,66.7,776.67,1.3
2019-10-28,19:55:00,DRY,8.10,12.10,66.5,777.00,1.6
2019-10-28,20:00:00,DRY,8.53,12.07,67.7,777.00,1.6
2019-10-28,20:05:00,DRY,7.25,12.10,66.5,777.00,1.5
2019-10-28,20:10:00,DRY,7.63,12.07,67.0,777.00,1.7
2019-10-28,20:15:00,DRY,7.75,12.00,66.5,777.00,1.2
2019-10-28,20:20:00,DRY,7.10,11.87,67.7,777.00,1.2
2019-10-28,20:25:00,DRY,7.25,12.00,65.0,777.00,1.4
2019-10-28,20:30:00,DRY,6.90,11.97,66.3,777.00,1.4
2019-10-28,20:35:00,DRY,8.45,11.95,66.0,777.00,1.5
2019-10-28,20:40:00,DRY,6.97,11.90,67.0,777.00,1.5
2019-10-28,20:45:00,DRY,7.20,11.95,67.5,777.00,1.4
2019-10-28,20:50:00,DRY,7.93,11.97,67.0,777.00,1.3
2019-10-28,20:55:00,DRY,7.60,11.85,69.0,777.00,1.1
2019-10-28,21:00:00,DRY,8.93,12.03,67.7,777.00,1.9
2019-10-28,21:05:00,DRY,6.40,12.10,68.0,777.00,1.6
2019-10-28,21:10:00,DRY,6.97,11.93,69.3,777.00,1.4
2019-10-28,21:15:00,DRY,7.70,12.05,67.5,777.00,1.6
2019-10-28,21:20:00,DRY,4.97,11.93,68.7,777.00,1.5
2019-10-28,21:25:00,DRY,7.55,12.00,69.0,777.00,1.3
2019-10-28,21:30:00,DRY,6.37,11.93,68.7,777.00,1.4
2019-10-28,21:35:00,DRY,4.80,11.95,68.5,777.00,1.2
2019-10-28,21:40:00,DRY,7.60,11.97,70.0,777.00,1.4
2019-10-28,21:45:00,WET,7.25,11.90,72.0,777.00,1.8
2019-10-28,21:50:00,DRY,7.07,11.90,71.7,777.00,1.7
2019-10-28,21:55:00,DRY,7.15,11.85,70.5,777.00,1.4
2019-10-28,22:00:00,DRY,6.43,12.13,70.3,777.00,1.4
2019-10-28,22:05:00,DRY,8.20,11.90,69.5,777.00,1.2
2019-10-28,22:10:00,DRY,8.27,11.87,69.3,777.00,1.4
2019-10-28,22:15:00,DRY,8.85,12.05,67.5,777.00,1.4
2019-10-28,22:20:00,DRY,5.87,12.10,68.3,777.00,1.4
2019-10-28,22:25:00,WET,7.95,11.85,73.0,777.00,1.5
2019-10-28,22:30:00,WET,8.57,11.90,73.0,777.00,1.6
2019-10-28,22:35:00,WET,8.15,11.85,72.5,777.00,1.4
2019-10-28,22:40:00,WET,7.43,11.87,72.3,777.00,1.2
2019-10-28,22:45:00,WET,5.25,11.85,73.0,777.00,1.0
2019-10-28,22:50:00,WET,6.47,11.97,73.3,777.00,1.3
2019-10-28,22:55:00,WET,6.25,11.80,74.0,777.00,1.2
2019-10-28,23:00:00,WET,6.47,11.83,73.3,777.00,1.4
2019-10-28,23:05:00,WET,6.35,11.80,73.5,777.00,1.4
2019-10-28,23:10:00,WET,6.83,11.87,73.3,777.00,1.5
2019-10-28,23:15:00,WET,6.90,11.75,74.0,777.00,1.2
2019-10-28,23:20:00,WET,7.00,11.67,74.0,777.00,1.4
2019-10-28,23:25:00,WET,7.15,11.80,74.0,777.00,1.6
2019-10-28,23:30:00,WET,4.73,11.77,74.3,777.00,1.6
2019-10-28,23:35:00,WET,5.20,11.75,74.5,777.00,1.6
2019-10-28,23:40:00,WET,6.87,12.03,69.3,777.00,1.3
2019-10-28,23:45:00,DRY,8.15,12.20,68.5,777.00,1.3
2019-10-28,23:50:00,WET,5.43,12.00,71.3,777.00,1.5
2019-10-28,23:55:00,DRY,4.50,11.80,72.5,777.00,1.9
2019-10-29,00:00:00,DRY,5.03,11.97,70.0,777.00,1.5
2019-10-29,00:05:00,DRY,6.90,12.10,68.0,777.00,2.5
2019-10-29,00:10:00,DRY,6.13,12.10,70.3,777.00,1.3
2019-10-29,00:15:00,DRY,8.25,12.05,69.0,777.00,1.2
2019-10-29,00:20:00,DRY,5.50,12.13,68.3,777.00,1.6
2019-10-29,00:25:00,DRY,5.40,12.10,67.0,777.00,1.2
2019-10-29,00:30:00,DRY,4.87,12.17,65.7,777.00,1.2
2019-10-29,00:35:00,DRY,5.55,12.30,64.5,776.50,1.6
2019-10-29,00:40:00,DRY,4.63,12.27,65.7,777.00,1.4
2019-10-29,00:45:00,DRY,7.25,12.15,65.0,777.00,1.2
2019-10-29,00:50:00,DRY,5.93,12.13,65.3,777.00,1.2
2019-10-29,00:55:00,DRY,5.95,12.15,65.0,776.50,1.2
2019-10-29,01:00:00,DRY,6.73,12.20,65.0,776.67,1.3
2019-10-29,01:05:00,DRY,5.80,12.25,63.5,777.00,1.2
2019-10-29,01:10:00,DRY,5.53,12.23,64.0,777.00,1.4
2019-10-29,01:15:00,DRY,6.70,12.25,63.5,777.00,1.4
2019-10-29,01:20:00,DRY,6.13,12.23,64.0,777.00,1.4
2019-10-29,01:25:00,DRY,6.20,12.20,65.0,776.50,1.6
2019-10-29,01:30:00,DRY,7.10,12.20,65.0,776.00,1.8
2019-10-29,01:35:00,DRY,6.40,12.30,64.0,776.00,1.4
2019-10-29,01:40:00,DRY,4.50,12.23,64.7,776.00,1.4
2019-10-29,01:45:00,DRY,4.20,12.25,65.0,776.50,1.6
2019-10-29,01:50:00,DRY,5.70,12.17,65.3,776.00,1.4
2019-10-29,01:55:00,DRY,5.20,12.15,65.5,776.00,1.2
2019-10-29,02:00:00,DRY,5.73,12.07,66.3,776.00,1.2
2019-10-29,02:05:00,DRY,6.40,12.00,66.5,776.00,1.4
2019-10-29,02:10:00,DRY,4.47,11.97,66.3,776.67,1.5
2019-10-29,02:15:00,DRY,7.60,12.00,66.5,776.00,1.6
2019-10-29,02:20:00,DRY,4.53,11.93,67.0,776.00,1.4
2019-10-29,02:25:00,DRY,7.90,11.95,68.0,776.00,0.9
2019-10-29,02:30:00,DRY,4.97,11.87,68.0,776.00,1.8
2019-10-29,02:35:00,DRY,4.35,11.85,68.0,776.00,0.6
2019-10-29,02:40:00,DRY,5.07,11.87,68.7,776.00,1.4
2019-10-29,02:45:00,DRY,5.35,11.75,69.0,776.00,0.8
2019-10-29,02:50:00,DRY,5.37,11.90,69.0,776.00,1.4
2019-10-29,02:55:00,DRY,6.05,11.85,69.5,776.00,1.3
2019-10-29,03:00:00,DRY,6.10,11.77,70.0,776.00,1.5
2019-10-29,03:05:00,WET,6.15,11.95,71.5,776.00,1.1
2019-10-29,03:10:00,WET,8.30,11.97,70.7,776.00,1.3
2019-10-29,03:15:00,WET,6.85,11.90,71.0,776.00,1.3
2019-10-29,03:20:00,WET,7.47,11.93,71.7,776.00,1.3
2019-10-29,03:25:00,WET,8.50,11.90,71.5,776.00,1.2
2019-10-29,03:30:00,WET,7.83,11.83,72.3,776.00,1.7
2019-10-29,03:35:00,WET,5.00,11.85,71.5,776.00,1.7
2019-10-29,03:40:00,WET,6.77,11.73,72.0,776.00,1.2
2019-10-29,03:45:00,WET,8.00,11.80,72.0,776.00,1.2
2019-10-29,03:50:00,WET,6.37,11.77,71.7,776.00,1.2
2019-10-29,03:55:00,WET,7.95,11.80,72.0,776.00,1.2
2019-10-29,04:00:00,WET,7.00,11.73,72.0,776.00,0.9
2019-10-29,04:05:00,WET,8.45,11.80,71.5,776.00,1.1
2019-10-29,04:10:00,WET,7.40,11.63,73.3,776.00,1.5
2019-10-29,04:15:00,WET,6.35,11.65,72.5,776.00,1.4
2019-10-29,04:20:00,WET,6.47,11.73,72.0,776.00,1.1
2019-10-29,04:25:00,WET,7.50,11.65,73.5,776.00,1.4
2019-10-29,04:30:00,WET,6.07,11.73,73.0,776.00,1.7
2019-10-29,04:35:00,WET,7.00,11.80,71.5,776.00,1.4
2019-10-29,04:40:00,WET,7.60,11.73,72.7,776.00,1.4
2019-10-29,04:45:00,WET,8.45,11.90,72.0,776.00,1.1
2019-10-29,04:50:00,WET,7.53,11.80,72.3,776.00,1.2
2019-10-29,04:55:00,WET,6.60,11.75,73.0,776.00,1.2
2019-10-29,05:00:00,WET,6.67,11.73,72.7,776.00,1.3
2019-10-29,05:05:00,WET,6.60,11.75,72.0,776.00,1.1
2019-10-29,05:10:00,WET,7.80,11.70,73.0,776.00,2.0
2019-10-29,05:15:00,WET,6.75,11.70,73.0,776.00,1.1
2019-10-29,05:20:00,WET,6.87,11.63,73.0,776.00,1.2
2019-10-29,05:25:00,WET,6.20,11.75,72.0,776.00,1.3
2019-10-29,05:30:00,WET,5.83,11.63,73.0,776.00,1.0
2019-10-29,05:35:00,WET,5.75,11.65,73.0,776.00,1.6
2019-10-29,05:40:00,WET,6.90,11.67,73.0,776.00,0.8
2019-10-29,05:45:00,WET,7.65,11.65,73.0,776.00,1.4
2019-10-29,05:50:00,WET,6.50,11.63,72.7,776.00,0.9
2019-10-29,05:55:00,WET,7.15,11.50,73.5,776.00,1.6
2019-10-29,06:00:00,WET,7.30,11.57,73.3,776.00,1.3
2019-10-29,06:05:00,WET,7.05,11.55,73.5,776.00,0.9
2019-10-29,06:10:00,WET,7.60,11.60,72.7,776.00,1.1
2019-10-29,06:15:00,WET,7.20,11.60,72.5,776.00,1.1
2019-10-29,06:20:00,WET,5.93,11.57,73.0,776.00,1.3
2019-10-29,06:25:00,WET,6.60,11.50,73.5,776.00,0.8
2019-10-29,06:30:00,WET,6.90,11.53,73.0,776.00,1.0
2019-10-29,06:35:00,WET,7.05,11.60,73.0,776.00,1.4
2019-10-29,06:40:00,WET,6.47,11.60,73.0,776.00,1.2
2019-10-29,06:45:00,WET,5.40,11.60,73.0,776.00,1.2
2019-10-29,06:50:00,WET,5.80,11.60,73.0,776.00,1.3
2019-10-29,06:55:00,WET,6.60,11.60,73.5,776.00,1.2
2019-10-29,07:00:00,WET,6.50,11.73,73.0,776.00,1.5
2019-10-29,07:05:00,WET,3.90,11.70,73.0,776.00,1.9
2019-10-29,07:10:00,WET,6.30,11.63,73.7,776.00,3.0
2019-10-29,07:15:00,WET,5.70,11.50,74.0,776.50,4.5
2019-10-29,07:20:00,WET,6.27,11.53,74.0,776.00,7.3
2019-10-29,07:25:00,WET,4.80,11.50,74.5,777.00,10.8
2019-10-29,07:30:00,WET,6.53,11.53,74.0,777.00,16.9
2019-10-29,07:35:00,WET,5.35,11.65,73.0,777.00,21.9
2019-10-29,07:40:00,WET,5.10,11.63,73.7,777.00,28.7
2019-10-29,07:45:00,WET,4.20,11.65,73.5,777.00,33.4
2019-10-29,07:50:00,WET,5.07,11.77,73.0,777.00,41.6
2019-10-29,07:55:00,WET,4.55,11.75,73.0,777.00,47.3
2019-10-29,08:00:00,WET,3.03,11.77,73.0,777.00,93.9
2019-10-29,08:05:00,WET,2.95,11.85,72.5,777.00,132.6
2019-10-29,08:10:00,DRY,2.50,11.90,72.3,777.00,153.3
2019-10-29,08:15:00,DRY,4.25,11.90,72.0,777.00,173.5
2019-10-29,08:20:00,DRY,4.97,11.90,72.3,777.00,194.0
2019-10-29,08:25:00,DRY,5.10,11.90,72.5,777.00,211.1
2019-10-29,08:30:00,DRY,4.97,11.97,72.0,777.00,233.2
2019-10-29,08:35:00,DRY,4.85,11.95,72.5,777.00,251.4
2019-10-29,08:40:00,DRY,4.50,12.00,72.0,777.00,271.1
2019-10-29,08:45:00,DRY,5.90,12.10,72.0,777.00,289.6
2019-10-29,08:50:00,DRY,5.70,12.13,71.0,777.00,309.5
2019-10-29,08:55:00,DRY,5.85,12.20,71.5,777.00,324.4
2019-10-29,09:00:00,DRY,5.33,12.17,71.3,777.00,355.4
2019-10-29,09:05:00,DRY,4.15,12.20,71.5,777.00,370.6
2019-10-29,09:10:00,DRY,4.30,12.37,70.7,777.00,391.2
2019-10-29,09:15:00,DRY,5.30,12.45,69.0,777.00,411.8
2019-10-29,09:20:00,DRY,5.17,12.57,69.7,777.00,428.1
2019-10-29,09:25:00,DRY,5.60,12.70,68.5,777.00,435.0
2019-10-29,09:30:00,DRY,5.83,12.73,68.3,777.00,454.5
2019-10-29,09:35:00,DRY,4.15,12.75,68.5,777.00,464.8
2019-10-29,09:40:00,DRY,5.57,12.87,67.7,777.00,484.7
2019-10-29,09:45:00,DRY,5.15,12.95,68.0,777.00,497.7
2019-10-29,09:50:00,DRY,4.13,13.10,67.0,777.67,524.7
2019-10-29,09:55:00,DRY,5.95,13.25,67.0,777.50,532.8
2019-10-29,10:00:00,DRY,5.43,13.40,65.7,777.67,538.1
2019-10-29,10:05:00,DRY,4.70,13.40,65.0,778.00,544.8
2019-10-29,10:10:00,DRY,5.00,13.33,65.3,778.00,560.1
2019-10-29,10:15:00,DRY,6.40,13.30,65.5,778.00,580.0
2019-10-29,10:20:00,DRY,4.13,13.53,64.3,778.00,613.0
2019-10-29,10:25:00,DRY,3.60,13.60,64.5,778.00,636.4
2019-10-29,10:30:00,DRY,6.37,13.77,63.0,778.00,648.4
2019-10-29,10:35:00,DRY,5.35,13.80,63.5,778.00,662.6
2019-10-29,10:40:00,DRY,3.83,13.77,63.3,778.00,678.9
2019-10-29,10:45:00,DRY,5.05,13.85,63.5,778.00,699.5
2019-10-29,10:50:00,DRY,4.13,13.93,62.0,778.00,644.7
2019-10-29,10:55:00,DRY,5.10,13.95,61.0,778.00,702.7
2019-10-29,11:00:00,DRY,5.67,13.80,63.3,778.00,714.8
2019-10-29,11:05:00,DRY,5.20,13.90,62.5,778.00,735.0
2019-10-29,11:10:00,DRY,6.10,14.00,61.7,778.00,744.2
2019-10-29,11:15:00,DRY,4.50,14.10,61.0,778.00,752.8
2019-10-29,11:20:00,DRY,5.47,14.20,61.7,778.00,759.3
2019-10-29,11:25:00,DRY,3.15,14.35,60.5,778.00,764.5
2019-10-29,11:30:00,DRY,4.30,14.43,60.3,778.00,774.4
2019-10-29,11:35:00,DRY,3.15,14.45,60.5,778.00,781.9
2019-10-29,11:40:00,DRY,3.03,14.40,59.7,778.00,789.6
2019-10-29,11:45:00,DRY,3.10,14.60,60.5,778.00,793.5
2019-10-29,11:50:00,DRY,2.23,14.53,60.7,778.00,801.3
2019-10-29,11:55:00,DRY,4.05,14.60,60.5,778.00,809.5
2019-10-29,12:00:00,DRY,4.60,14.53,59.7,778.00,815.9
2019-10-29,12:05:00,DRY,3.35,14.60,58.5,778.00,824.2
2019-10-29,12:10:00,DRY,6.00,14.43,59.7,778.00,830.1
2019-10-29,12:15:00,DRY,5.45,14.85,57.5,778.00,834.8
2019-10-29,12:20:00,DRY,3.67,14.97,57.3,778.00,802.5
2019-10-29,12:25:00,DRY,3.95,15.10,57.5,778.00,843.0
2019-10-29,12:30:00,DRY,2.87,14.97,57.7,778.00,841.2
2019-10-29,12:35:00,DRY,3.90,15.00,56.0,777.50,840.7
2019-10-29,12:40:00,DRY,5.97,15.03,56.7,777.67,845.2
2019-10-29,12:45:00,DRY,2.70,15.15,59.0,778.00,841.9
2019-10-29,12:50:00,DRY,4.47,15.10,55.7,777.67,840.2
2019-10-29,12:55:00,DRY,3.85,14.80,57.5,778.00,842.4
2019-10-29,13:00:00,DRY,4.57,14.90,58.3,777.67,842.3
2019-10-29,13:05:00,DRY,3.55,15.00,57.0,777.50,840.5
2019-10-29,13:10:00,DRY,3.33,15.20,56.0,777.00,840.1
2019-10-29,13:15:00,DRY,2.30,15.55,57.0,777.00,835.8
2019-10-29,13:20:00,DRY,2.27,15.03,56.0,777.00,835.5
2019-10-29,13:25:00,DRY,3.65,15.45,57.5,777.00,832.8
2019-10-29,13:30:00,DRY,3.40,15.40,57.0,777.00,829.5
2019-10-29,13:35:00,DRY,2.70,15.50,58.0,777.00,826.7
2019-10-29,13:40:00,DRY,1.67,15.33,57.7,777.00,820.8
2019-10-29,13:45:00,DRY,2.55,15.35,56.0,777.00,815.7
2019-10-29,13:50:00,DRY,3.93,15.50,56.7,777.00,811.0
2019-10-29,13:55:00,DRY,2.70,15.65,56.5,777.00,803.1
2019-10-29,14:00:00,DRY,3.93,15.27,56.3,777.00,795.2
2019-10-29,14:05:00,DRY,4.80,15.00,58.5,777.00,791.6
2019-10-29,14:10:00,DRY,3.97,14.87,59.7,777.00,784.3
2019-10-29,14:15:00,DRY,3.75,14.95,58.0,777.00,777.5
2019-10-29,14:20:00,DRY,3.43,15.00,59.3,777.00,765.7
2019-10-29,14:25:00,DRY,1.55,15.80,55.5,777.00,757.0
2019-10-29,14:30:00,DRY,2.30,15.23,55.3,777.00,746.5
2019-10-29,14:35:00,DRY,2.60,15.20,56.5,777.00,737.8
2019-10-29,14:40:00,DRY,2.77,15.20,55.7,777.00,729.4
2019-10-29,14:45:00,DRY,4.85,15.25,57.0,777.00,718.7
2019-10-29,14:50:00,DRY,3.87,15.53,55.3,777.00,709.3
2019-10-29,14:55:00,DRY,4.15,15.05,57.0,777.00,696.6
2019-10-29,15:00:00,DRY,2.97,15.30,57.3,777.33,681.5
2019-10-29,15:05:00,DRY,3.20,15.35,57.5,777.00,669.8
2019-10-29,15:10:00,DRY,3.67,15.13,56.7,777.00,657.4
2019-10-29,15:15:00,DRY,2.90,15.35,55.5,777.00,643.0
2019-10-29,15:20:00,DRY,4.07,15.30,55.3,777.00,630.3
2019-10-29,15:25:00,DRY,2.85,14.95,55.0,777.00,617.8
2019-10-29,15:30:00,DRY,4.17,15.07,54.3,777.00,602.3
2019-10-29,15:35:00,DRY,4.70,15.25,54.5,777.00,588.2
2019-10-29,15:40:00,DRY,3.47,15.37,55.7,777.00,573.1
2019-10-29,15:45:00,DRY,4.25,15.35,55.0,777.00,556.8
2019-10-29,15:50:00,DRY,1.27,15.33,54.7,777.00,540.6
2019-10-29,15:55:00,DRY,3.40,15.20,54.0,777.00,523.8
2019-10-29,16:00:00,DRY,2.70,14.97,55.3,777.00,505.5
2019-10-29,16:05:00,DRY,4.95,15.10,54.0,777.00,487.0
2019-10-29,16:10:00,DRY,3.77,15.10,55.0,777.00,470.6
2019-10-29,16:15:00,DRY,3.45,15.30,54.0,777.00,451.2
2019-10-29,16:20:00,DRY,3.10,15.17,55.0,777.33,435.5
2019-10-29,16:25:00,DRY,4.50,15.00,54.5,777.50,416.5
2019-10-29,16:30:00,DRY,5.70,15.03,53.7,777.00,397.0
2019-10-29,16:35:00,DRY,3.15,14.70,56.0,777.50,378.9
2019-10-29,16:40:00,DRY,4.17,14.93,55.3,777.33,360.4
2019-10-29,16:45:00,DRY,3.10,14.75,55.5,778.00,341.1
2019-10-29,16:50:00,DRY,4.77,14.87,54.7,778.00,321.4
2019-10-29,16:55:00,DRY,2.40,14.50,57.0,778.00,301.0
2019-10-29,17:00:00,DRY,3.33,14.57,57.0,777.67,282.3
2019-10-29,17:05:00,DRY,3.50,14.65,57.0,778.00,263.6
2019-10-29,17:10:00,DRY,2.40,14.50,57.7,778.00,243.8
2019-10-29,17:15:00,DRY,2.10,14.45,56.0,778.00,224.9
2019-10-29,17:20:00,DRY,4.37,14.33,57.0,778.00,205.0
2019-10-29,17:25:00,DRY,4.10,14.15,57.0,777.50,186.0
2019-10-29,17:30:00,DRY,4.07,14.20,57.3,778.00,166.9
2019-10-29,17:35:00,DRY,2.25,14.05,58.0,778.00,149.6
2019-10-29,17:40:00,DRY,4.00,13.93,57.7,778.00,130.3
2019-10-29,17:45:00,DRY,2.90,13.75,58.5,778.00,112.7
2019-10-29,17:50:00,DRY,3.13,13.67,60.0,778.00,93.0
2019-10-29,17:55:00,DRY,3.20,13.50,62.0,778.00,73.9
2019-10-29,18:00:00,DRY,4.50,13.37,61.0,778.00,57.1
2019-10-29,18:05:00,DRY,4.75,13.25,64.5,778.00,43.2
2019-10-29,18:10:00,DRY,5.03,13.03,64.0,778.00,31.1
2019-10-29,18:15:00,DRY,4.95,13.00,65.0,778.00,22.1
2019-10-29,18:20:00,DRY,3.90,12.83,65.7,778.00,15.1
2019-10-29,18:25:00,DRY,5.15,12.80,64.0,778.00,10.8
2019-10-29,18:30:00,DRY,4.17,12.77,66.7,778.00,6.8
2019-10-29,18:35:00,DRY,4.35,12.75,65.0,778.00,4.7
2019-10-29,18:40:00,DRY,5.13,12.73,67.0,778.00,2.9
2019-10-29,18:45:00,DRY,4.35,12.75,65.5,778.00,1.9
2019-10-29,18:50:00,DRY,3.90,12.67,66.0,778.00,1.3
2019-10-29,18:55:00,DRY,3.50,12.55,66.0,778.00,1.7
2019-10-29,19:00:00,DRY,3.63,12.67,64.3,778.00,0.9
2019-10-29,19:05:00,DRY,2.35,12.60,64.5,778.00,1.0
2019-10-29,19:10:00,DRY,3.27,12.63,64.7,778.00,1.5
2019-10-29,19:15:00,DRY,1.40,12.60,64.5,778.00,0.8